Home   Weather   Edinburgh   Past weeks

Flag for United Kingdom Past Weather in Edinburgh, Scotland, United Kingdom — Yesterday and Last 2 Weeks

46 °F

Light rain. Partly sunny.

Feels Like: 41 °F
Forecast: 40 / 47 °F
Wind: 13 mph from South

Location: Edinburgh Airport

Current Time: Mar 23, 2018 at 7:02:58 am

Latest Report: Mar 23, 2018 at 6:20 am

Visibility: N/A

Pressure: 29.12 "Hg

Humidity: 82%

Dew Point: 41 °F

Location of EdinburghLocation

Past Weather in Edinburgh — Graph


Edinburgh Temperature Yesterday

Maximum temperature yesterday: 50 °F (at 11:20 am)
Minimum temperature yesterday: 45 °F (at 5:50 am)
Average temperature yesterday: 46 °F

High & Low Weather Summary for the Past Weeks

High50 °F (Mar 14, 2:50 pm)100% (Mar 8, 5:20 am)30.48 "Hg (Mar 8, 5:20 am)
Low28 °F (Mar 8, 5:20 am)37% (Mar 20, 2:50 pm)29.15 "Hg (Mar 23, 5:50 am)
Average40 °F82%29.74 "Hg
* Reported Mar 8 5:20 am — Mar 23 5:50 am, Edinburgh. Weather by CustomWeather, © 2018

Note: Actual official high and low records may vary slightly from our data, if they occured in-between our weather recording intervals... More about our weather records


Edinburgh Weather History for the Previous 24 Hours

Scroll right to see more
Time TempWeatherWind HumidityBarometerVisibility
5:50 am
Fri, Mar 23
45 °FLight rain. Passing clouds.13 mph87%29.15 "HgN/A
5:20 am46 °FLight rain. Passing clouds.17 mph82%29.18 "HgN/A
4:50 am46 °FLight rain. Passing clouds.17 mph82%29.21 "HgN/A
4:20 am46 °FLight rain. Clear.12 mph82%29.21 "HgN/A
3:50 am46 °FLight rain. Passing clouds.6 mph82%29.24 "HgN/A
3:20 am45 °FLight rain. Passing clouds.6 mph87%29.27 "HgN/A
2:50 am46 °FSprinkles. Passing clouds.8 mph82%29.30 "HgN/A
2:20 am46 °FLight rain. Overcast.7 mph76%29.33 "HgN/A
1:50 am46 °FLight rain. Mostly cloudy.9 mph82%29.36 "HgN/A
1:20 am46 °FLight rain. Passing clouds.9 mph76%29.36 "HgN/A
12:50 am46 °FPassing clouds.7 mph76%29.39 "HgN/A
12:20 am46 °FPassing clouds.8 mph76%29.42 "HgN/A
11:50 pm
Thu, Mar 22
46 °FPassing clouds.10 mph76%29.45 "HgN/A
11:20 pm45 °FPassing clouds.12 mph81%29.45 "HgN/A
10:50 pm45 °FPassing clouds.16 mph81%29.47 "HgN/A
10:20 pm45 °FOvercast.14 mph81%29.50 "HgN/A
9:50 pm45 °FPassing clouds.12 mph81%29.53 "HgN/A
9:20 pm45 °FPassing clouds.13 mph81%29.56 "HgN/A
8:50 pm45 °FPassing clouds.16 mph81%29.56 "HgN/A
8:20 pm45 °FPassing clouds.14 mph81%29.59 "HgN/A
7:20 pm45 °FPassing clouds.17 mph81%29.65 "HgN/A
6:50 pm45 °FPassing clouds.15 mph76%29.65 "HgN/A
6:20 pm45 °FPartly sunny.10 mph76%29.65 "HgN/A
5:50 pm45 °FPartly sunny.14 mph76%29.68 "HgN/A
5:20 pm46 °FPartly sunny.16 mph71%29.71 "HgN/A
4:50 pm46 °FPartly sunny.13 mph71%29.74 "HgN/A
4:20 pm46 °FPartly sunny.16 mph66%29.74 "HgN/A
3:50 pm46 °FPartly sunny.21 mph71%29.77 "HgN/A
3:20 pm46 °FPartly sunny.20 mph71%29.80 "HgN/A
2:50 pm48 °FPartly sunny.18 mph66%29.80 "HgN/A
2:20 pm48 °FPartly sunny.20 mph66%29.83 "HgN/A
1:50 pm48 °FPartly sunny.21 mph66%29.83 "HgN/A
1:20 pm48 °FPartly sunny.20 mph66%29.86 "HgN/A
12:50 pm48 °FPartly sunny.17 mph71%29.86 "HgN/A
12:20 pm48 °FPartly sunny.16 mph71%29.89 "HgN/A
11:20 am50 °FPartly sunny.20 mph67%29.92 "HgN/A
10:50 am48 °FPartly sunny.21 mph66%29.92 "HgN/A
10:20 am48 °FPartly sunny.20 mph71%29.95 "HgN/A
9:50 am48 °FPartly sunny.15 mph71%29.95 "HgN/A
9:20 am48 °FPartly sunny.14 mph76%29.98 "HgN/A
8:50 am46 °FPartly sunny.12 mph82%29.98 "HgN/A
8:20 am46 °FPartly sunny.12 mph82%29.98 "HgN/A
7:50 am46 °FPartly sunny.12 mph82%30.01 "HgN/A
7:20 am45 °FPartly sunny.12 mph81%30.01 "HgN/A
Weather by CustomWeather, © 2018

See weather overview